{"data":{"norad_id":28935,"intl_designator":"2006-003A","name":"ECHOSTAR 10","alt_names":[],"object_type":"PAYLOAD","status":"ACTIVE","operator":null,"country":"US","launch_date":"2006-02-15","launch_site_code":"SEAL","launch_vehicle":null,"mission":null,"orbit_class":"UNKNOWN","rcs_meters":22.7066,"size_class":null,"mass_kg":null,"dimensions":null,"purposes":["comms"],"wikipedia_slug":null,"has_3d_model":false,"image_url":null,"decayed_at":null,"tle_current":{"epoch":"2026-05-25T03:13:10.826976Z","epoch_age_seconds":70354,"freshness":"FRESH","line1":"1 28935U 06003A   26145.13415309 -.00000058  00000+0  00000+0 0  9992","line2":"2 28935   0.0249  17.3610 0001955   7.4333 156.0304  1.00271588 74239","mean_motion":1.00271588,"eccentricity":0.0001955,"inclination_deg":0.0249,"raan_deg":17.361,"arg_perigee_deg":7.4333,"mean_anomaly_deg":156.0304,"bstar":0,"rev_number":7423,"period_min":1436.0997254776,"perigee_km":35778.406971637,"apogee_km":35794.893403428,"semimajor_km":42164.787187532,"source":"CELESTRAK","updated_at":"2026-05-25T13:38:13.851241Z"}}}